TimeCST,TemperatureF,Dew PointF,Humidity,Sea Level PressureIn,VisibilityMPH,Wind Direction,Wind SpeedMPH,Gust SpeedMPH,PrecipitationIn,Events,Conditions,WindDirDegrees,DateUTC
12:56 AM,14.0,6.1,71,29.84,10.0,WNW,25.3,31.1,0.00,Snow,Light Snow,300,2014-01-17 06:56:00
1:19 AM,12.2,5.0,73,29.79,10.0,NW,18.4,27.6,0.00,Snow,Light Snow,310,2014-01-17 07:19:00
1:56 AM,12.0,5.0,73,29.86,6.0,WNW,17.3,27.6,0.00,Snow,Light Snow,300,2014-01-17 07:56:00
2:17 AM,10.4,5.0,79,29.81,3.0,WNW,16.1,-,0.00,Snow,Light Snow,300,2014-01-17 08:17:00
2:36 AM,10.4,6.8,85,29.82,2.0,WNW,13.8,-,0.00,Snow,Light Snow,300,2014-01-17 08:36:00
2:40 AM,10.4,6.8,85,29.82,1.8,West,16.1,-,0.00,Snow,Light Snow,280,2014-01-17 08:40:00
2:48 AM,10.4,5.0,79,29.82,1.2,West,17.3,-,0.00,Snow,Light Snow,280,2014-01-17 08:48:00
2:56 AM,10.0,5.0,80,29.90,2.5,West,15.0,-,0.00,Snow,Light Snow,270,2014-01-17 08:56:00
3:05 AM,8.6,5.0,85,29.83,4.0,West,18.4,-,0.00,Snow,Light Snow,270,2014-01-17 09:05:00
3:40 AM,8.6,3.2,79,29.83,5.0,West,16.1,-,0.00,Snow,Light Snow,280,2014-01-17 09:40:00
3:56 AM,9.1,3.0,76,29.91,5.0,West,13.8,-,0.00,Snow,Light Snow,270,2014-01-17 09:56:00
4:43 AM,8.6,1.4,73,29.85,5.0,West,18.4,-,0.00,Snow,Light Snow,280,2014-01-17 10:43:00
4:56 AM,8.1,2.1,77,29.92,9.0,West,18.4,-,0.00,Snow,Light Snow,280,2014-01-17 10:56:00
5:43 AM,6.8,-0.4,72,29.86,10.0,West,15.0,-,0.00,Snow,Light Snow,280,2014-01-17 11:43:00
5:56 AM,5.0,-0.9,76,29.94,10.0,West,15.0,-,0.00,Snow,Light Snow,280,2014-01-17 11:56:00
7:56 AM,5.0,-0.9,76,29.98,10.0,West,16.1,-,N/A,,Clear,280,2014-01-17 13:56:00
8:56 AM,6.1,-0.9,73,30.00,10.0,West,17.3,-,N/A,,Clear,280,2014-01-17 14:56:00
9:56 AM,7.2,-0.9,69,30.02,10.0,WNW,16.1,-,N/A,,Mostly Cloudy,290,2014-01-17 15:56:00
10:56 AM,8.1,2.1,77,30.04,3.0,WNW,13.8,-,0.00,Snow,Light Snow,300,2014-01-17 16:56:00
11:56 AM,10.0,2.1,70,30.03,4.0,West,16.1,-,0.00,Snow,Light Snow,280,2014-01-17 17:56:00
12:56 PM,10.0,5.0,80,30.03,3.0,West,13.8,-,0.00,Snow,Light Snow,280,2014-01-17 18:56:00
1:56 PM,11.1,4.1,73,30.04,2.0,West,16.1,-,0.00,Snow,Light Snow,270,2014-01-17 19:56:00
2:56 PM,11.1,3.0,70,30.06,2.0,West,15.0,19.6,0.00,Snow,Light Snow,270,2014-01-17 20:56:00
3:21 PM,10.4,3.2,73,29.98,4.0,West,16.1,-,0.00,Snow,Light Snow,260,2014-01-17 21:21:00
3:56 PM,11.1,4.1,73,30.09,4.0,West,16.1,21.9,0.00,Snow,Light Snow,270,2014-01-17 21:56:00
4:56 PM,11.1,5.0,76,30.11,4.0,West,16.1,20.7,0.00,Snow,Light Snow,270,2014-01-17 22:56:00
5:56 PM,11.1,5.0,76,30.12,4.0,West,15.0,-,0.00,Snow,Light Snow,270,2014-01-17 23:56:00
6:03 PM,10.4,5.0,79,30.03,6.0,West,12.7,-,0.00,Snow,Light Snow,270,2014-01-18 00:03:00
6:56 PM,11.1,5.0,76,30.13,10.0,West,11.5,19.6,0.00,Snow,Light Snow,270,2014-01-18 00:56:00
7:08 PM,10.4,5.0,79,30.03,10.0,West,11.5,19.6,0.00,Snow,Light Snow,270,2014-01-18 01:08:00
7:56 PM,11.1,5.0,76,30.13,10.0,West,12.7,-,0.00,Snow,Light Snow,260,2014-01-18 01:56:00
8:56 PM,12.0,5.0,73,30.12,10.0,West,12.7,-,0.00,,Overcast,270,2014-01-18 02:56:00
9:03 PM,12.2,5.0,73,30.03,10.0,West,12.7,-,N/A,,Overcast,260,2014-01-18 03:03:00
9:56 PM,12.0,5.0,73,30.12,10.0,West,13.8,-,N/A,,Overcast,270,2014-01-18 03:56:00
10:56 PM,11.1,4.1,73,30.10,10.0,West,11.5,-,N/A,,Scattered Clouds,270,2014-01-18 04:56:00
11:56 PM,9.1,3.0,76,30.09,10.0,WSW,4.6,-,N/A,,Clear,250,2014-01-18 05:56:00